TimePST,TemperatureF,Dew PointF,Humidity,Sea Level PressureIn,VisibilityMPH,Wind Direction,Wind SpeedMPH,Gust SpeedMPH,PrecipitationIn,Events,Conditions,WindDirDegrees,DateUTC
12:56 AM,37.0,25.0,62,30.17,10.0,NW,3.5,-,N/A,,Clear,320,2013-11-12 08:56:00
1:56 AM,36.0,25.0,64,30.17,10.0,East,5.8,-,N/A,,Clear,90,2013-11-12 09:56:00
2:56 AM,36.0,24.1,62,30.17,10.0,Calm,Calm,-,N/A,,Clear,0,2013-11-12 10:56:00
3:56 AM,36.0,25.0,64,30.18,10.0,Calm,Calm,-,N/A,,Clear,0,2013-11-12 11:56:00
4:56 AM,36.0,25.0,64,30.19,10.0,Calm,Calm,-,N/A,,Clear,0,2013-11-12 12:56:00
5:56 AM,37.0,25.0,62,30.20,10.0,WSW,4.6,-,N/A,,Mostly Cloudy,250,2013-11-12 13:56:00
6:56 AM,37.0,27.0,67,30.22,10.0,Calm,Calm,-,N/A,,Overcast,0,2013-11-12 14:56:00
7:56 AM,39.0,27.0,62,30.24,10.0,SE,5.8,-,N/A,,Mostly Cloudy,140,2013-11-12 15:56:00
8:56 AM,42.1,27.0,55,30.27,10.0,SSW,6.9,-,N/A,,Overcast,200,2013-11-12 16:56:00
9:56 AM,46.0,28.0,50,30.27,10.0,SSW,6.9,-,N/A,,Overcast,200,2013-11-12 17:56:00
10:56 AM,51.1,27.0,39,30.27,10.0,Calm,Calm,-,N/A,,Overcast,0,2013-11-12 18:56:00
11:56 AM,55.0,25.0,31,30.21,10.0,North,10.4,-,N/A,,Mostly Cloudy,10,2013-11-12 19:56:00
12:56 PM,59.0,24.1,26,30.20,10.0,NNE,8.1,-,N/A,,Mostly Cloudy,30,2013-11-12 20:56:00
1:56 PM,59.0,26.1,28,30.20,10.0,WNW,6.9,-,N/A,,Mostly Cloudy,300,2013-11-12 21:56:00
2:56 PM,59.0,27.0,29,30.21,10.0,Calm,Calm,-,N/A,,Mostly Cloudy,0,2013-11-12 22:56:00
3:56 PM,57.0,27.0,32,30.20,10.0,North,3.5,-,N/A,,Mostly Cloudy,360,2013-11-12 23:56:00
4:56 PM,52.0,28.0,40,30.20,10.0,NW,3.5,-,N/A,,Mostly Cloudy,320,2013-11-13 00:56:00
5:56 PM,50.0,28.0,43,30.21,10.0,Calm,Calm,-,N/A,,Mostly Cloudy,0,2013-11-13 01:56:00
6:56 PM,46.0,28.0,50,30.22,10.0,SE,4.6,-,N/A,,Mostly Cloudy,140,2013-11-13 02:56:00
7:56 PM,44.1,28.9,55,30.22,10.0,Calm,Calm,-,N/A,,Mostly Cloudy,0,2013-11-13 03:56:00
8:56 PM,43.0,28.0,56,30.23,10.0,Calm,Calm,-,N/A,,Partly Cloudy,0,2013-11-13 04:56:00
9:56 PM,37.9,26.1,62,30.23,10.0,South,8.1,-,N/A,,Partly Cloudy,170,2013-11-13 05:56:00
10:56 PM,36.0,25.0,64,30.23,10.0,SSE,8.1,-,N/A,,Clear,160,2013-11-13 06:56:00
11:56 PM,37.9,25.0,60,30.23,10.0,SE,8.1,-,N/A,,Clear,140,2013-11-13 07:56:00